Fullerton, CA

11:58 PM PDT on August 16, 2017 (GMT -0700)
Fullerton Municipal

Weather History for KFUL - May, 2009

Change the Weather History Date:

Thursday, May 7, 2009

  Actual Average Record
Temperature  
Mean Temperature 75 °F 66 °F  
Max Temperature 90 °F 75 °F 98 °F (2007)
Min Temperature 60 °F 57 °F 50 °F (2017)
Degree Days  
Heating Degree Days 0 1  
Month to date heating degree days 1 12  
Since 1 July heating degree days 995 1206  
Cooling Degree Days 10 2  
Month to date cooling degree days 29 14  
Year to date cooling degree days 114 66  
Growing Degree Days 25 (Base 50)    
Moisture  
Dew Point 55 °F    
Average Humidity 54    
Maximum Humidity 78    
Minimum Humidity 29    
Precipitation  
Precipitation 0.00 in 0.02 in 0.53 in (2017)
Month to date precipitation T 0.11  
Year to date precipitation 5.38 9.42  
Since 1 July precipitation 10.01  
Snow  
Snow 0.00 in - - ()
Month to date snowfall 0.0  
Year to date snowfall 0.0  
Snow Depth 0.00 in    
Sea Level Pressure  
Sea Level Pressure 29.83 in    
Wind  
Wind Speed 4 mph (South)    
Max Wind Speed 10 mph    
Max Gust Speed 14 mph    
Visibility 10 miles    
Events      
T = Trace of Precipitation, MM = Missing Value Source: NWS Daily Summary

Daily Weather History Graph

Daily Weather History Graph

Search for Another Location

Airport or City:

Trip Planner

Search our weather history database for the weather conditions in past years. The results will help you decide how hot, cold, wet, or windy it might be!

Date:

Astronomy

May. 07, 2009 Rise Set
Actual Time 5:56 AM PDT 7:40 PM PDT
Civil Twilight 5:29 AM PDT 8:07 PM PDT
Nautical Twilight 4:57 AM PDT 8:40 PM PDT
Astronomical Twilight 4:22 AM PDT 9:14 PM PDT
Moon 6:41 PM PDT (5/7) 4:41 AM PDT (5/7)
Length of Visible Light 14h 37m
Length of Day
13h 43m
Waxing Gibbous, 98% of the Moon is Illuminated
May 7
Waxing Gibbous
May 8
Full
May 17
Last Quarter
May 24
New
May 30
First Quarter

Hourly Weather History & Observations

Time (PDT) Temp. Heat Index Dew Point Humidity Pressure Visibility Wind Dir Wind Speed Gust Speed Precip Events Conditions
12:53 AM 64.9 °F - 55.9 °F 73% 29.89 in 10.0 mi Calm Calm - N/A   Clear
1:53 AM 64.0 °F - 55.9 °F 75% 29.88 in 10.0 mi Calm Calm - N/A   Clear
3:53 AM 62.1 °F - 55.0 °F 78% 29.86 in 10.0 mi Calm Calm - N/A   Clear
4:53 AM 61.0 °F - 54.0 °F 78% 29.84 in 10.0 mi Calm Calm - N/A   Clear
5:53 AM 61.0 °F - 54.0 °F 78% 29.85 in 10.0 mi Calm Calm - N/A   Clear
6:53 AM 63.0 °F - 55.0 °F 75% 29.86 in 9.0 mi NE 3.5 mph - N/A   Clear
7:53 AM 66.0 °F - 57.0 °F 73% 29.86 in 10.0 mi ESE 3.5 mph - N/A   Clear
8:53 AM 70.0 °F - 55.0 °F 59% 29.87 in 10.0 mi Calm Calm - N/A   Clear
9:53 AM 75.0 °F - 55.9 °F 51% 29.86 in 10.0 mi Variable 3.5 mph - N/A   Clear
10:53 AM 78.1 °F - 55.9 °F 46% 29.87 in 10.0 mi Calm Calm - N/A   Clear
11:53 AM 84.0 °F 83.0 °F 55.9 °F 38% 29.86 in 10.0 mi Variable 3.5 mph - N/A   Clear
12:53 PM 84.9 °F 83.7 °F 55.9 °F 37% 29.84 in 10.0 mi Variable 4.6 mph - N/A   Clear
1:53 PM 86.0 °F 84.2 °F 54.0 °F 33% 29.82 in 10.0 mi Variable 4.6 mph - N/A   Clear
2:53 PM 89.1 °F 86.7 °F 53.1 °F 29% 29.80 in 10.0 mi SW 8.1 mph - N/A   Clear
3:53 PM 86.0 °F - 52.0 °F 31% 29.78 in 10.0 mi South 9.2 mph - N/A   Clear
4:53 PM 87.1 °F - 51.1 °F 29% 29.77 in 10.0 mi South 5.8 mph - N/A   Clear
5:53 PM 84.0 °F 82.6 °F 54.0 °F 35% 29.76 in 10.0 mi South 8.1 mph - N/A   Clear
6:53 PM 75.9 °F - 55.0 °F 48% 29.76 in 10.0 mi South 6.9 mph - N/A   Clear
7:53 PM 71.1 °F - 55.0 °F 57% 29.77 in 10.0 mi South 8.1 mph - N/A   Clear
8:53 PM 66.9 °F - 54.0 °F 63% 29.79 in 10.0 mi South 4.6 mph - N/A   Clear
9:53 PM 66.9 °F - 53.1 °F 61% 29.80 in 10.0 mi South 4.6 mph - N/A   Clear
10:53 PM 66.9 °F - 54.0 °F 63% 29.81 in 10.0 mi ESE 3.5 mph - N/A   Clear
11:53 PM 66.0 °F - 55.0 °F 68% 29.80 in 10.0 mi Calm Calm - N/A   Clear